{"data":{"norad_id":52540,"intl_designator":"2022-051H","name":"STARLINK-3940","alt_names":[],"object_type":"PAYLOAD","status":"ACTIVE","operator":null,"country":"US","launch_date":"2022-05-13","launch_site_code":"AFWTR","launch_vehicle":null,"mission":null,"orbit_class":"UNKNOWN","rcs_meters":null,"size_class":null,"mass_kg":null,"dimensions":null,"purposes":["comms"],"wikipedia_slug":null,"has_3d_model":false,"image_url":null,"decayed_at":null,"tle_current":{"epoch":"2026-05-24T23:55:03.963360Z","epoch_age_seconds":71553,"freshness":"FRESH","line1":"1 52540U 22051H   26144.99657365  .00000163  00000+0  28309-4 0  9998","line2":"2 52540  53.2141 146.6049 0001057  71.7001 288.4106 15.08838980222963","mean_motion":15.0883898,"eccentricity":0.0001057,"inclination_deg":53.2141,"raan_deg":146.6049,"arg_perigee_deg":71.7001,"mean_anomaly_deg":288.4106,"bstar":2.8309e-5,"rev_number":22296,"period_min":95.437619195124,"perigee_km":539.01528641114,"apogee_km":540.47772698446,"semimajor_km":6917.8835066978,"source":"CELESTRAK","updated_at":"2026-05-25T13:38:17.162362Z"}}}